This demonstration page uses our WeatherBlox Daily Observations layout. Learn more.

Left ArrowRight Arrow

Hourly Observations for February 2, 2017

Temp ( °F °C ) Dew Point ( °F °C ) Humidity (%) Winds ( mph kmh ) Pressure ( in mb ) Visibility ( mi km ) Precip ( " mm )
12:53 am 00:53 Cloudy 14 -10 9 -12.8 80 80 Calm 30.62 1037 10 16 0.00 0.00
1:53 am 01:53 Cloudy 14 -10 9 -12.8 80 80 Calm 30.60 1036 10 16 0.00 0.00
2:53 am 02:53 Cloudy 14 -10 10 -12.2 84 84 Calm 30.60 1036 10 16 0.00 0.00
3:53 am 03:53 Cloudy 14 -10 10 -12.2 84 84 Calm 30.60 1036 10 16 0.00 0.00
4:53 am 04:53 Mostly Cloudy 12 -11.1 8 -13.3 84 84 NE 5 7 30.59 1036 10 16 0.00 0.00
5:53 am 05:53 Clear 8 -13.3 5 -15 87 87 ENE 5 7 30.59 1036 10 16 0.00 0.00
6:53 am 06:53 Clear 2 -16.7 0 -17.8 91 91 SE 3 6 30.60 1036 10 16 0.00 0.00
7:53 am 07:53 Sunny 1 -17.2 -3 -19.4 83 83 W 3 6 30.62 1037 10 16 0.00 0.00
8:53 am 08:53 Cloudy 6 -14.4 2 -16.7 83 83 Calm 30.61 1037 10 16 0.00 0.00
9:53 am 09:53 Cloudy 10 -12.2 6 -14.4 84 84 Calm 30.60 1036 10 16 0.00 0.00
10:53 am 10:53 Cloudy 14 -10 8 -13.3 77 77 Calm 30.59 1036 10 16 0.00 0.00
11:53 am 11:53 Mostly Sunny 17 -8.3 7 -13.9 64 64 Calm 30.57 1035 10 16 0.00 0.00
12:53 pm 12:53 Sunny 19 -7.2 6 -14.4 57 57 NW 6 9 30.54 1034 10 16 0.00 0.00
1:53 pm 13:53 Mostly Sunny 18 -7.8 6 -14.4 59 59 WNW 8 13 30.53 1034 10 16 0.00 0.00
2:53 pm 14:53 Mostly Sunny 17 -8.3 7 -13.9 64 64 WSW 8 13 30.52 1034 10 16 0.00 0.00
3:53 pm 15:53 Mostly Cloudy 19 -7.2 7 -13.9 59 59 SW 10 17 30.51 1033 10 16 0.00 0.00
4:53 pm 16:53 Mostly Cloudy 16 -8.9 8 -13.3 71 71 SW 10 17 30.52 1034 10 16 0.00 0.00
5:53 pm 17:53 Clear 10 -12.2 4 -15.6 76 76 S 10 17 30.54 1034 10 16 0.00 0.00
6:53 pm 18:53 Mostly Clear 6 -14.4 2 -16.7 83 83 Calm 30.55 1035 10 16 0.00 0.00
7:53 pm 19:53 Clear 6 -14.4 1 -17.2 79 79 Calm 30.54 1034 10 16 0.00 0.00
8:53 pm 20:53 Clear 3 -16.1 -1 -18.3 83 83 S 7 11 30.51 1033 10 16 0.00 0.00
9:53 pm 21:53 Clear 4 -15.6 0 -17.8 83 83 SW 6 9 30.50 1033 10 16 0.00 0.00
10:53 pm 22:53 Clear 2 -16.7 -1 -18.3 88 88 Calm 30.47 1032 10 16 0.00 0.00
11:53 pm 23:53 Clear 2 -16.7 -1 -18.3 88 88 Calm 30.44 1031 10 16 0.00 0.00

Powered by AerisWeather